Regional Weather Roundup
Issued by NWS Albany, NY

Home | Current Version | Previous Version | Text Only | Print | Product List | Glossary On
Versions: 1 2 3 4 5 6 7 8 9 10 11 12 13 14 15 16 17 18 19 20 21 22 23 24 25 26 27 28 29 30 31 32 33 34 35 36 37 38 39 40 41 42 43 44 45 46 47 48 49 50
155
ASUS41 KALY 241910
RWRALY

NEW YORK STATE HOURLY WEATHER ROUNDUP
NATIONAL WEATHER SERVICE ALBANY NY
200 PM EST SAT FEB 24 2018

NOTE: "FAIR" INDICATES FEW OR NO CLOUDS BELOW 12,000 FEET WITH NO
SIGNIFICANT WEATHER AND/OR NO OBSTRUCTIONS TO VISIBILITY.

NYZ032-033-038>043-046>054-057>066-NYZ062>081-082-084-242000-
EAST


CITY           SKY/WX    TMP DP  RH WIND       PRES   REMARKS
ALBANY         CLOUDY    44  30  57 NW7       30.16F
GLENS FALLS    FAIR      44  30  57 N14       30.15F
POUGHKEEPSIE   LGT RAIN  47  43  86 NE5       30.12F
NEWBURGH       CLOUDY    45  43  93 NW5       30.13F
MONTGOMERY     LGT RAIN  46  42  86 W5        30.13S
WHITE PLAINS   LGT RAIN  51  40  65 N8        30.12F
ISLIP          CLOUDY    53  42  66 NW9       30.12F
NEW YORK CITY  CLOUDY    53  38  56 NW8       30.13F
CENTRAL PARK   CLOUDY    53  38  56 VRB3      30.16F
$$

NYZ005>009-017-018-044>046-055-056-242000-
CENTRAL


CITY           SKY/WX    TMP DP  RH WIND       PRES   REMARKS
FULTON         FAIR      41  28  60 W6        30.21F
SYRACUSE       CLOUDY    40  31  70 NW8       30.20F WCI  34
ROME           FAIR      41  30  65 NW12      30.20S
ELMIRA         CLOUDY    41  33  73 E3        30.18R
BINGHAMTON     CLOUDY    37  31  78 N7        30.14R WCI  32
MONTICELLO     LGT RAIN  39  38  96 W5        30.15
$$

NYZ026>034-041>043-087-242000-
NORTH


CITY           SKY/WX    TMP DP  RH WIND       PRES   REMARKS
WATERTOWN      PTSUNNY   40  31  70 CALM      30.20F
FORT DRUM      NOT AVBL
OGDENSBURG     CLOUDY    39  28  63 N8        30.22F WCI  34
MASSENA        CLOUDY    38  27  64 NW14      30.24S WCI  30
SARANAC LAKE   CLOUDY    33  28  81 VRB6      30.14S WCI  28
PLATTSBURGH    CLOUDY    42  26  53 N10       30.19S
$$

NYZ001>004-010>016-019>021-085-242000-
WEST


CITY           SKY/WX    TMP DP  RH WIND       PRES   REMARKS
NIAGARA FALLS  FAIR      38  27  64 NE9       30.20F WCI  31
BUFFALO        CLOUDY    37  30  75 N8        30.20S WCI  31
DUNKIRK        CLOUDY    38  32  79 NE9       30.18S WCI  31
JAMESTOWN        N/A    N/A N/A N/A MISG        N/A
WELLSVILLE     LGT RAIN  41  37  86 CALM      30.13F
ROCHESTER      CLOUDY    39  30  70 NE8       30.21F WCI  33
PENN YAN       CLOUDY    40  29  64 E3        30.18S
$$

             KEY
       WCI = WIND CHILL INDEX
       VSB = VISIBILITY
       HX  = HEAT INDEX
$$




USA.gov is the U.S. government's official web portal to all federal, state and local government web resources and services.